Location: Mentone
(34.5413°N, 85.5351°W)
Time: 04:42:50
(UTC-05:00)

Vanguard 1 - Visible Passes

Search period start: 31 July 2016 00:00
Search period end: 10 August 2016 00:00
Orbit: 649 x 3835 km, 34.2° (Epoch: 29 July)

Date Brightness Start Highest point End Pass type
(mag) Time Alt. Az. Time Alt. Az. Time Alt. Az.
31 Jul 9.1 03:43:20 63° WSW 03:44:04 86° S 03:48:28 10° E visible
01 Aug 9.1 04:03:15 37° W 04:05:08 88° S 04:09:33 10° E visible
02 Aug 11.9 02:10:28 12° E 02:10:28 12° E 02:10:49 10° E visible
02 Aug 9.1 04:23:12 22° W 04:26:11 83° S 04:30:38 10° E visible
02 Aug 13.0 21:37:13 10° S 21:40:20 14° S 21:40:20 14° S visible
03 Aug 11.4 02:30:27 21° E 02:30:27 21° E 02:31:50 10° E visible
03 Aug 9.1 04:43:11 14° W 04:47:12 72° SSW 04:51:42 10° ESE visible
03 Aug 12.8 21:56:02 10° SSW 22:01:23 19° S 22:01:23 19° S visible
04 Aug 10.7 02:50:29 33° E 02:50:29 33° E 02:52:50 10° E visible
04 Aug 9.3 05:03:39 10° W 05:08:12 55° SSW 05:12:41 10° ESE visible
04 Aug 12.6 22:15:48 10° SSW 22:22:30 24° S 22:22:30 24° S visible
05 Aug 9.9 03:10:35 52° E 03:10:35 52° E 03:13:51 10° E visible
05 Aug 9.7 05:24:53 10° W 05:29:09 40° SSW 05:33:31 10° SE visible
05 Aug 12.7 20:17:16 10° S 20:25:30 15° SSE 20:30:47 12° ESE visible
05 Aug 12.4 22:36:11 10° SW 22:43:37 28° SSW 22:43:37 28° SSW visible
06 Aug 9.3 03:30:45 77° SE 03:30:45 77° SE 03:34:52 10° E visible
06 Aug 12.4 20:35:26 10° SSW 20:47:04 22° SSE 20:51:55 17° ESE visible
06 Aug 12.2 22:57:00 10° SW 23:04:44 32° SSW 23:04:44 32° SSW visible
07 Aug 9.2 03:50:59 64° SW 03:51:28 70° SSW 03:55:51 10° ESE visible
07 Aug 12.1 20:54:47 10° SSW 21:08:33 29° SSE 21:12:58 24° ESE visible
07 Aug 12.2 23:18:10 10° WSW 23:25:48 33° SW 23:25:48 33° SW visible
08 Aug 9.4 04:11:19 43° WSW 04:12:26 53° SSW 04:16:43 10° ESE visible
08 Aug 11.9 21:14:50 10° SSW 21:30:00 38° SSE 21:33:57 30° ESE visible
08 Aug 12.2 23:39:36 10° WSW 23:46:46 33° WSW 23:46:46 33° WSW visible
09 Aug 9.8 04:31:45 29° WSW 04:33:20 38° SSW 04:37:25 10° SE visible
09 Aug 11.6 21:35:25 10° SW 21:51:23 47° SSE 21:54:49 38° ESE visible
